Tracking 19562 objects as of 22-Mar-2019
HD Live streaming from Space Station
objects crossing your sky now

ARABSAT 1B

Track ARABSAT 1B now!
ARABSAT 1B is classified as:


NORAD ID: 15825
Int'l Code: 1985-048C
Perigee: 35,663.8 km
Apogee: 35,843.1 km
Inclination: 14.9 °
Period: 1,434.0 minutes
Semi major axis: 42124 km
RCS: 3.4988 m2 (large)
Launch date: June 17, 1985
Source: Arab Satellite Communications Organization (AB)
Launch site: AIR FORCE EASTERN TEST RANGE (AFETR)
aabbcc
Your satellite tracking list
Your tracking list is empty




NASA's NSSDC Master Catalog

Two Line Element Set (TLE):
1 15825U 85048C   19078.47548222 +.00000084 +00000-0 +00000-0 0  9997
2 15825 014.8534 356.1336 0021281 327.3410 233.9123 01.00415600108895
Source of the keplerian elements: AFSPC